Simultaneous Nadir Overpasses (SNOs) Predictions

Prediction of SNOs between METOP-B and TERRA Satellite Orbit:

Table of predicted SNOs for the next 14.0 days since TLE Epoch: 2/26/2017
Index Date (METOP-B) Time (METOP-B) Lat,Lon (METOP-B) SZA (METOP-B ) Date (TERRA) Time (TERRA) Lat,Lon (TERRA) SZA (TERRA ) Distance(km) Time Diff (sec)
1 02/28/2017 14:05:37 81.31, 16.23 91.49 02/28/2017 14:05:43 81.31, 16.10 91.48 2.20 6
2 02/28/2017 14:56:15 -81.32,-175.87 88.46 02/28/2017 14:55:08 -81.33,-175.93 88.49 1.12 67
3 03/03/2017 09:39:59 81.31, 82.42 90.41 03/03/2017 09:40:00 81.31, 82.61 90.43 3.05 1
4 03/03/2017 10:30:38 -81.32,-109.65 89.54 03/03/2017 10:29:27 -81.31,-109.77 89.59 2.14 71
5 03/06/2017 04:23:41 -81.31, -18.74 90.67 03/06/2017 04:24:53 -81.32, -18.57 90.62 2.95 72
6 03/
